Regional Weather Roundup
Issued by NWS Sterling, VA

Home | Current Version | Previous Version | Graphics & Text | Print | Product List | Glossary On
Versions: 1 2 3 4 5 6 7 8 9 10 11 12 13 14 15 16 17 18 19 20 21 22 23 24 25 26 27 28 29 30 31 32 33 34 35 36 37 38 39 40 41 42 43 44 45 46 47 48 49 50
000
ASUS41 KLWX 300510
RWRLWX

REGIONAL WEATHER ROUNDUP
NATIONAL WEATHER SERVICE BALTIMORE MD/WASHINGTON DC
100 AM EDT TUE JUN 30 2015

Note: "FAIR" indicates few or no clouds below 12,000 feet
with no significant weather and/or obstructions to visibility.
 TC=TEMPERATURE CELSIUS

 * =Non NWS site. Station does not report precipitation (e.g. rain,
    snow, etc.), thunder, or fog.

DCZ001-MDZ009-015-VAZ040>042-051-053>054-300600-
WASHINGTON METRO

CITY           SKY/WX    TMP DP  RH WIND       PRES   REMARKS
WASHINGTON NAT PTCLDY    72  63  73 S6        29.94F
DULLES         PTCLDY    70  60  70 S5        29.93F
ANDREWS AFB    CLEAR     67  64  88 SE8       29.94S
FT BELVOIR     CLEAR     64  62  92 CALM      29.93F
QUANTICO       CLEAR     75  65  70 S15       29.94F
COLLEGE PARK*  CLEAR     64  63  94 CALM      29.94S
LEESBURG*      CLEAR     66  63  88 S3        29.94F
MANASSAS*      CLEAR     66  63  88 CALM      29.93S
GAITHERSBURG*  PTCLDY    64  55  72 SE7       29.98S

$$

MDZ006>007-011-014-300600-
BALTIMORE METRO

CITY           SKY/WX    TMP DP  RH WIND       PRES   REMARKS
BWI AIRPORT    PTCLDY    68  61  78 CALM      29.94S
MD SCIENCE CTR   N/A     73  62  68 MISG      29.95S
MARTIN STATE   CLEAR     73  68  83 SE9       29.96S
ANNAPOLIS      CLEAR     73  65  75 S5        29.94S
FORT MEADE*    CLEAR     61  59  94 CALM      29.97S

$$

MDZ012-015-019>023-300600-
MARYLAND EASTERN SHORE

CITY           SKY/WX    TMP DP  RH WIND       PRES   REMARKS
OCEAN CITY     CLEAR     72  66  81 S3        29.98S
SALISBURY      CLEAR     65  63  93 SE3       29.97S
BAY BRIDGE AP*   N/A     73  61  64 SE8       29.95S
CAMBRIDGE*     CLEAR     70  63  78 SE3       29.95S
EASTON*        CLEAR     69  63  79 S5        29.99S

$$

MDZ017>025-300600-
SOUTHERN MARYLAND

CITY           SKY/WX    TMP DP  RH WIND       PRES   REMARKS
PATUXENT RIVER CLEAR     73  65  75 S6        29.95S
ST INIGOES     CLEAR     75  68  78 S9        29.94S
LEONARDTOWN*   CLEAR     70  63  78 CALM      29.97R

$$

MDZ003>005-300600-
NORTH CENTRAL MARYLAND

CITY           SKY/WX    TMP DP  RH WIND       PRES   REMARKS
FREDERICK*     PTCLDY    66  61  82 SW3       29.96S
HAGERSTOWN APT CLOUDY    74  55  51 S12       29.91F
WESTMINSTER*   CLOUDY    72  57  60 S7        29.95F

$$

MDZ501>502-300600-
WESTERN MARYLAND

CITY           SKY/WX    TMP DP  RH WIND       PRES   REMARKS
OAKLAND*       CLOUDY    61 N/A N/A S10G17    29.96F
CUMBERLAND*    CLOUDY    70  59  68 CALM      29.93F

$$

VAZ025>031-300600-
SHENANDOAH VALLEY

CITY           SKY/WX    TMP DP  RH WIND       PRES   REMARKS
WINCHESTER*    PTCLDY    63  61  94 CALM      29.92F
FRONT ROYAL*   FAIR      68  59  73 S3        29.91F
LURAY*         FAIR      70  61  73 SW5       29.93F
NEW MARKET*    FAIR      64  60  88 CALM      29.93S
STAUNTON*      CLEAR     65  60  84 CALM      29.96F
WAYNESBORO*    FAIR      66  58  76 CALM      29.96F

$$

WVZ021-048>050-054>055-300600-
EASTERN WEST VIRGINIA PANHANDLE

CITY           SKY/WX    TMP DP  RH WIND       PRES   REMARKS
MARTINSBURG    MOCLDY    66  59  78 CALM      29.92F
PETERSBURG*    CLOUDY    66  59  80 CALM      29.92F

$$

VAZ036>039-050-300600-
CENTRAL FOOTHILLS

CITY           SKY/WX    TMP DP  RH WIND       PRES   REMARKS
CHARLOTTESVILL CLEAR     65  61  87 CALM      29.94F
CULPEPER*        N/A     63  61  93 CALM      29.94S
ORANGE*        CLEAR     63  61  94 CALM      29.95F
GORDONSVILLE*  FAIR      63  61  94 CALM      29.94S
WARRENTON*     FAIR      65  63  95 CALM      29.93S

$$

VAZ055>057-300600-
NORTH AND CENTRAL PIEDMONT

CITY           SKY/WX    TMP DP  RH WIND       PRES   REMARKS
FREDERICKSBRG* CLEAR     70  65  82 CALM      29.93S
STAFFORD*      CLEAR     62  60  94 CALM      29.97F

$$

NCZ024-NYZ072-PAZ021-071-VAZ022-071-300600-
OTHER REGIONAL OBSERVATIONS

CITY           SKY/WX    TMP DP  RH WIND       PRES   REMARKS
NEW YORK CITY  CLEAR     72  56  57 VRB5      29.97S
PHILADELPHIA   CLEAR     71  59  65 SW5       29.96R
PITTSBURGH     CLOUDY    63  60  90 SE5       29.85F
ROANOKE        MOCLDY    67  62  84 W3        29.97F
RICHMOND       PTCLDY    71  66  84 SE6       29.95S
RALEIGH        PTCLDY    74  66  76 S5        29.95F

$$

ANZ530>537-300600-
MARINE OBSERVATIONS

STATION/POSITION TIME  TEMP    WIND        PRES
                       AIR SEA DIR/SP/G
                 (UTC) (F)     (DEG/KT/KT) (MB)
THOMAS PT LIGHT  NOT AVBL
BALT KEY BRIDGE  0400   74     160/  8/  9 1013.7F
COVE POINT       0400   76     200/ 11/ 16 1014.7F
LEWISETTA        0400   73 80  180/  6/  8 1014.0F
SOLOMONS ISLAND  0400      79                N/A
PINEY POINT      0400          180/ 14/ 17   N/A

$$



USA.gov is the U.S. government's official web portal to all federal, state and local government web resources and services.